Simultaneous Nadir Overpasses (SNOs) Predictions

Prediction of SNOs between GOES-16 and NOAA-20 Satellite Orbit:

Table of predicted SNOs for the next 14.0 days since TLE Epoch: 5/4/2024
Index Date Time (GOES-16) GOES-16 Lat,Lon NOAA-20 Lat,Lon Distance(km) Time Diff (sec)
1 05/05/2024 18:30:43 0.02, -75.21 -0.19, -76.03 94.17 80
2 05/06/2024 18:09:17 0.02, -75.22 0.86, -71.50 423.43 80
3 05/08/2024 06:33:43 -0.02, -75.23 0.33, -76.77 175.17 80
4 05/09/2024 06:12:16 -0.02, -75.24 -0.67, -72.23 342.47 80
5 05/10/2024 18:36:50 0.02, -75.25 -0.48, -77.53 259.78 80
6 05/11/2024 18:15:24 0.02, -75.26 0.52, -72.99 258.35 80
7 05/13/2024 06:39:49 -0.01, -75.28 0.67, -78.25 339.12 80
8 05/14/2024 06:18:24 -0.01, -75.30 -0.39, -73.73 179.46 80
9 05/15/2024 18:42:57 0.01, -75.32 -0.80, -79.02 421.37 80
10 05/16/2024 18:21:31 0.01, -75.34 0.20, -74.49 97.86 80
